North Bend, OR

9:30 AM PDT on April 27, 2017 (GMT -0700)
North Bend Municipal

Weather History for KOTH - April, 2013

Change the Weather History Date:

Tuesday, April 30, 2013

  Actual Average Record
Temperature  
Mean Temperature 48 °F 51 °F  
Max Temperature 54 °F 57 °F 91 °F (2014)
Min Temperature 41 °F 45 °F 33 °F (1937)
Degree Days  
Heating Degree Days 17 14  
Month to date heating degree days 430 475  
Since 1 July heating degree days 3980 4186  
Cooling Degree Days 0 0  
Month to date cooling degree days 0 0  
Year to date cooling degree days 0 0  
Moisture  
Dew Point 39 °F    
Average Humidity 71    
Maximum Humidity 93    
Minimum Humidity 46    
Precipitation  
Precipitation 0.00 in 0.12 in 1.02 in (1942)
Month to date precipitation 2.70 5.17  
Year to date precipitation 12.34 30.78  
Sea Level Pressure  
Sea Level Pressure 30.34 in    
Wind  
Wind Speed 14 mph (NNE)    
Max Wind Speed 28 mph    
Max Gust Speed 36 mph    
Visibility 10 miles    
Events      
T = Trace of Precipitation, MM = Missing Value Source: NWS Daily Summary

Daily Weather History Graph

Daily Weather History Graph

Search for Another Location

Airport or City:

Trip Planner

Search our weather history database for the weather conditions in past years. The results will help you decide how hot, cold, wet, or windy it might be!

Date:

Astronomy

Apr. 30, 2013 Rise Set
Actual Time 6:10 AM PDT 8:18 PM PDT
Civil Twilight 5:39 AM PDT 8:49 PM PDT
Nautical Twilight 5:01 AM PDT 9:28 PM PDT
Astronomical Twilight 4:19 AM PDT 10:10 PM PDT
Moon 12:48 AM PDT (4/30) 10:44 AM PDT (4/30)
Length of Visible Light 15h 09m
Length of Day
14h 07m
Waning Gibbous, 69% of the Moon is Illuminated
Apr 30
Waning Gibbous
May 2
Last Quarter
May 9
New
May 17
First Quarter
May 24
Full

Hourly Weather History & Observations

Time (PDT) Temp. Windchill Dew Point Humidity Pressure Visibility Wind Dir Wind Speed Gust Speed Precip Events Conditions
12:15 AM 46.4 °F 41.1 °F 39.2 °F 76% 30.27 in 10.0 mi North 11.5 mph - N/A   Clear
12:35 AM 46.4 °F 41.5 °F 39.2 °F 76% 30.27 in 10.0 mi NNE 10.4 mph - N/A   Clear
12:55 AM 44.6 °F 41.4 °F 39.2 °F 81% 30.27 in 10.0 mi NE 5.8 mph - N/A   Clear
1:15 AM 44.6 °F 41.4 °F 37.4 °F 76% 30.27 in 10.0 mi NE 5.8 mph - N/A   Clear
1:35 AM 44.6 °F 43.1 °F 37.4 °F 76% 30.28 in 10.0 mi NE 3.5 mph - N/A   Clear
1:55 AM 44.6 °F 42.2 °F 37.4 °F 76% 30.28 in 10.0 mi NNE 4.6 mph - N/A   Clear
2:15 AM 42.8 °F 39.3 °F 37.4 °F 81% 30.28 in 10.0 mi NE 5.8 mph - N/A   Clear
2:35 AM 42.8 °F 38.0 °F 37.4 °F 81% 30.28 in 10.0 mi NE 8.1 mph - N/A   Clear
2:55 AM 42.8 °F 38.0 °F 37.4 °F 81% 30.28 in 10.0 mi NE 8.1 mph - N/A   Clear
3:15 AM 42.8 °F 39.3 °F 37.4 °F 81% 30.28 in 10.0 mi NE 5.8 mph - N/A   Clear
3:35 AM 42.8 °F 38.6 °F 37.4 °F 81% 30.28 in 10.0 mi NE 6.9 mph - N/A   Clear
3:55 AM 42.8 °F 39.3 °F 37.4 °F 81% 30.29 in 10.0 mi NE 5.8 mph - N/A   Clear
4:15 AM 42.8 °F 39.3 °F 37.4 °F 81% 30.29 in 10.0 mi NNE 5.8 mph - N/A   Clear
4:35 AM 42.8 °F 40.1 °F 37.4 °F 81% 30.29 in 10.0 mi NE 4.6 mph - N/A   Clear
4:55 AM 42.8 °F 41.1 °F 37.4 °F 81% 30.30 in 10.0 mi NNE 3.5 mph - N/A   Clear
5:15 AM 41.0 °F 38.0 °F 37.4 °F 87% 30.30 in 10.0 mi NE 4.6 mph - N/A   Clear
5:35 AM 41.0 °F - 37.4 °F 87% 30.31 in 10.0 mi Calm Calm - N/A   Clear
5:55 AM 41.0 °F 38.0 °F 39.2 °F 93% 30.31 in 10.0 mi NE 4.6 mph - N/A   Clear
6:15 AM 41.0 °F 39.0 °F 37.4 °F 87% 30.31 in 10.0 mi NNE 3.5 mph - N/A   Clear
6:35 AM 41.0 °F 36.4 °F 39.2 °F 93% 30.31 in 10.0 mi NNE 6.9 mph - N/A   Clear
6:55 AM 41.0 °F - 39.2 °F 93% 30.32 in 10.0 mi Calm Calm - N/A   Clear
7:15 AM 42.8 °F - 39.2 °F 87% 30.32 in 10.0 mi Calm Calm - N/A   Scattered Clouds
7:35 AM 42.8 °F - 39.2 °F 87% 30.33 in 10.0 mi Calm Calm - N/A   Scattered Clouds
7:55 AM 42.8 °F - 39.2 °F 87% 30.34 in 10.0 mi Calm Calm - N/A   Clear
8:15 AM 44.6 °F - 39.2 °F 81% 30.34 in 10.0 mi Calm Calm - N/A   Partly Cloudy
8:35 AM 46.4 °F 43.5 °F 39.2 °F 76% 30.34 in 10.0 mi NNE 5.8 mph - N/A   Scattered Clouds
8:55 AM 48.2 °F - 37.4 °F 66% 30.34 in 10.0 mi NNE 4.6 mph - N/A   Partly Cloudy
9:15 AM 50.0 °F - 35.6 °F 58% 30.34 in 10.0 mi NE 9.2 mph - N/A   Clear
9:35 AM 51.8 °F - 35.6 °F 54% 30.33 in 10.0 mi NNE 8.1 mph - N/A   Clear
9:55 AM 51.8 °F - 35.6 °F 54% 30.33 in 10.0 mi NE 6.9 mph - N/A   Partly Cloudy
10:15 AM 51.8 °F - 35.6 °F 54% 30.34 in 10.0 mi NNE 6.9 mph - N/A   Scattered Clouds
10:35 AM 53.6 °F - 35.6 °F 51% 30.34 in 10.0 mi NE 12.7 mph 16.1 mph N/A   Scattered Clouds
10:55 AM 53.6 °F - 33.8 °F 47% 30.34 in 10.0 mi NNE 15.0 mph 18.4 mph N/A   Mostly Cloudy
11:15 AM 53.6 °F - 37.4 °F 54% 30.36 in 10.0 mi NNW 16.1 mph 23.0 mph N/A   Mostly Cloudy
11:35 AM 53.6 °F - 39.2 °F 58% 30.36 in 10.0 mi North 19.6 mph 26.5 mph N/A   Mostly Cloudy
11:55 AM 51.8 °F - 39.2 °F 62% 30.37 in 10.0 mi North 19.6 mph 25.3 mph N/A   Scattered Clouds
12:15 PM 53.6 °F - 41.0 °F 62% 30.36 in 10.0 mi North 21.9 mph - N/A   Clear
12:35 PM 53.6 °F - 41.0 °F 62% 30.36 in 10.0 mi NNW 23.0 mph 29.9 mph N/A   Clear
12:55 PM 53.6 °F - 41.0 °F 62% 30.37 in 10.0 mi North 19.6 mph 27.6 mph N/A   Clear
1:15 PM 53.6 °F - 39.2 °F 58% 30.37 in 10.0 mi North 20.7 mph 25.3 mph N/A   Clear
1:35 PM 53.6 °F - 39.2 °F 58% 30.37 in 10.0 mi North 23.0 mph 33.4 mph N/A   Clear
1:55 PM 53.6 °F - 39.2 °F 58% 30.37 in 10.0 mi NNW 24.2 mph 32.2 mph N/A   Clear
2:15 PM 53.6 °F - 39.2 °F 58% 30.36 in 10.0 mi North 25.3 mph 33.4 mph N/A   Clear
2:35 PM 53.6 °F - 41.0 °F 62% 30.37 in 10.0 mi North 24.2 mph 32.2 mph N/A   Clear
2:55 PM 53.6 °F - 41.0 °F 62% 30.37 in 10.0 mi North 25.3 mph 34.5 mph N/A   Clear
3:15 PM 53.6 °F - 42.8 °F 67% 30.38 in 10.0 mi NNW 23.0 mph 32.2 mph N/A   Clear
3:35 PM 53.6 °F - 41.0 °F 62% 30.37 in 10.0 mi North 24.2 mph 33.4 mph N/A   Clear
3:55 PM 51.8 °F - 39.2 °F 62% 30.37 in 10.0 mi North 25.3 mph 35.7 mph N/A   Clear
4:15 PM 53.6 °F - 41.0 °F 62% 30.36 in 10.0 mi North 21.9 mph 33.4 mph N/A   Clear
4:35 PM 53.6 °F - 41.0 °F 62% 30.36 in 10.0 mi North 23.0 mph 32.2 mph N/A   Clear
4:55 PM 53.6 °F - 42.8 °F 67% 30.36 in 10.0 mi North 26.5 mph 33.4 mph N/A   Clear
5:15 PM 51.8 °F - 41.0 °F 67% 30.36 in 10.0 mi North 27.6 mph 31.1 mph N/A   Clear
5:35 PM 51.8 °F - 41.0 °F 67% 30.36 in 10.0 mi North 26.5 mph 33.4 mph N/A   Clear
5:55 PM 51.8 °F - 39.2 °F 62% 30.36 in 10.0 mi North 27.6 mph 33.4 mph N/A   Clear
6:15 PM 51.8 °F - 39.2 °F 62% 30.37 in 10.0 mi North 24.2 mph 34.5 mph N/A   Clear
6:35 PM 51.8 °F - 39.2 °F 62% 30.37 in 10.0 mi North 25.3 mph 34.5 mph N/A   Clear
6:55 PM 51.8 °F - 41.0 °F 67% 30.37 in 10.0 mi North 26.5 mph 32.2 mph N/A   Clear
7:15 PM 50.0 °F - 41.0 °F 71% 30.37 in 10.0 mi North 28.8 mph 35.7 mph N/A   Clear
7:35 PM 50.0 °F - 41.0 °F 71% 30.37 in 10.0 mi North 28.8 mph 34.5 mph N/A   Clear
7:55 PM 48.2 °F - 41.0 °F 76% 30.38 in 10.0 mi North 27.6 mph 34.5 mph N/A   Clear
8:15 PM 48.2 °F - 39.2 °F 71% 30.38 in 10.0 mi North 21.9 mph 32.2 mph N/A   Clear
8:35 PM 48.2 °F - 41.0 °F 76% 30.38 in 10.0 mi North 20.7 mph 29.9 mph N/A   Clear
8:55 PM 48.2 °F - 41.0 °F 76% 30.39 in 10.0 mi North 25.3 mph 28.8 mph N/A   Clear
9:15 PM 48.2 °F - 39.2 °F 71% 30.40 in 10.0 mi North 21.9 mph 28.8 mph N/A   Clear
9:35 PM 48.2 °F - 39.2 °F 71% 30.39 in 10.0 mi North 20.7 mph - N/A   Clear
10:15 PM 46.4 °F 41.1 °F 39.2 °F 76% 30.41 in 10.0 mi North 11.5 mph - N/A   Clear
10:35 PM 46.4 °F 42.4 °F 39.2 °F 76% 30.41 in 10.0 mi NNE 8.1 mph - N/A   Clear
10:55 PM 46.4 °F 43.5 °F 39.2 °F 76% 30.41 in 10.0 mi North 5.8 mph - N/A   Clear
11:15 PM 44.6 °F 39.7 °F 39.2 °F 81% 30.41 in 10.0 mi North 9.2 mph - N/A   Clear
11:35 PM 44.6 °F 39.2 °F 39.2 °F 81% 30.42 in 10.0 mi North 10.4 mph - N/A   Clear
11:55 PM 44.6 °F 39.2 °F 39.2 °F 81% 30.42 in 10.0 mi North 10.4 mph - N/A   Clear